SWA782 KMCO-MDPC

Flight info

Callsign SWA782
Flight time 2h 13m
Altitude 37000
Route DDANY3 VALKA DCT ZFP BR1L BENIE DCT CHASO Y306 HAGIT DCT POKEG DCT BEREL BEREL1W
Aircraft B738/M-SADE2E3GIJ4RWZ/LB1D1

Departure

Time 2026-04-20 16:49
Airport Orlando International Airport (KMCO)

Arrival

Time 2026-04-20 19:03
Airport Punta Cana International Airport (MDPC)
Time Latitude Longitude Altitude Speed Heading
2026-04-20 16:35 28.42613 -81.30017 101 ft 0 kts 241°
2026-04-20 16:38 28.42624 -81.29994 102 ft 4 kts 241°
2026-04-20 16:38 28.42637 -81.29968 101 ft 3 kts 241°
2026-04-20 16:38 28.42648 -81.29947 100 ft 4 kts 241°
2026-04-20 16:39 28.42660 -81.29920 101 ft 3 kts 241°
2026-04-20 16:39 28.42673 -81.29898 101 ft 4 kts 224°
2026-04-20 16:39 28.42695 -81.29883 100 ft 4 kts 188°
2026-04-20 16:39 28.42719 -81.29882 102 ft 4 kts 180°
2026-04-20 16:40 28.42724 -81.29882 101 ft 1 kts 180°
2026-04-20 16:42 28.42695 -81.29882 100 ft 9 kts 179°
2026-04-20 16:42 28.42626 -81.29874 102 ft 10 kts 153°
2026-04-20 16:42 28.42587 -81.29811 102 ft 10 kts 139°
2026-04-20 16:42 28.42521 -81.29795 102 ft 10 kts 179°
2026-04-20 16:43 28.42455 -81.29794 101 ft 9 kts 179°
2026-04-20 16:43 28.42389 -81.29793 101 ft 10 kts 179°
2026-04-20 16:43 28.42304 -81.29791 101 ft 14 kts 180°
2026-04-20 16:43 28.42197 -81.29791 101 ft 16 kts 180°
2026-04-20 16:44 28.42089 -81.29791 101 ft 15 kts 179°
2026-04-20 16:44 28.41985 -81.29789 101 ft 15 kts 179°
2026-04-20 16:44 28.41886 -81.29787 101 ft 14 kts 179°
2026-04-20 16:44 28.41791 -81.29787 101 ft 13 kts 180°
2026-04-20 16:45 28.41701 -81.29788 101 ft 13 kts 180°
2026-04-20 16:45 28.41613 -81.29787 101 ft 13 kts 178°
2026-04-20 16:45 28.41524 -81.29784 101 ft 13 kts 178°
2026-04-20 16:45 28.41433 -81.29784 100 ft 14 kts 180°
2026-04-20 16:46 28.41338 -81.29784 100 ft 13 kts 179°
2026-04-20 16:46 28.41247 -81.29782 100 ft 13 kts 179°
2026-04-20 16:46 28.41159 -81.29782 98 ft 13 kts 180°
2026-04-20 16:46 28.41072 -81.29781 99 ft 12 kts 179°
2026-04-20 16:47 28.40984 -81.29780 99 ft 13 kts 179°
2026-04-20 16:47 28.40897 -81.29779 99 ft 12 kts 180°
2026-04-20 16:47 28.40829 -81.29756 98 ft 10 kts 127°
2026-04-20 16:47 28.40821 -81.29682 99 ft 10 kts 88°
2026-04-20 16:48 28.40822 -81.29608 99 ft 9 kts 90°
2026-04-20 16:48 28.40853 -81.29559 96 ft 9 kts
2026-04-20 16:48 28.40875 -81.29559 97 ft 0 kts 358°
2026-04-20 16:49 28.40967 -81.29562 99 ft 32 kts 359°
2026-04-20 16:49 28.41415 -81.29565 103 ft 96 kts 359°
2026-04-20 16:49 28.42278 -81.29561 119 ft 149 kts
2026-04-20 16:49 28.43347 -81.29553 734 ft 157 kts
2026-04-20 16:50 28.44469 -81.29506 1485 ft 165 kts
2026-04-20 16:50 28.45545 -81.29013 2171 ft 175 kts 37°
2026-04-20 16:50 28.46326 -81.27971 3006 ft 174 kts 51°
2026-04-20 16:50 28.47067 -81.26824 3652 ft 183 kts 52°
2026-04-20 16:51 28.47845 -81.25626 4352 ft 192 kts 53°
2026-04-20 16:51 28.48646 -81.24395 5081 ft 194 kts 53°
2026-04-20 16:51 28.49457 -81.23153 5753 ft 197 kts 52°
2026-04-20 16:51 28.50182 -81.21818 6417 ft 201 kts 66°
2026-04-20 16:52 28.50596 -81.20263 6822 ft 220 kts 76°
2026-04-20 16:52 28.50931 -81.18419 6746 ft 252 kts 79°
2026-04-20 16:52 28.51111 -81.16366 6675 ft 267 kts 98°
2026-04-20 16:52 28.50681 -81.14316 6592 ft 267 kts 106°
2026-04-20 16:53 28.50193 -81.12280 6559 ft 267 kts 107°
2026-04-20 16:53 28.49714 -81.10231 6542 ft 270 kts 106°
2026-04-20 16:53 28.49236 -81.08153 6571 ft 273 kts 105°
2026-04-20 16:53 28.48753 -81.06081 6563 ft 269 kts 110°
2026-04-20 16:54 28.47811 -81.04271 6576 ft 269 kts 136°
2026-04-20 16:54 28.46359 -81.02846 6920 ft 281 kts 143°
2026-04-20 16:54 28.44826 -81.01469 7519 ft 287 kts 144°
2026-04-20 16:54 28.43244 -81.00055 8214 ft 291 kts 143°
2026-04-20 16:55 28.41645 -80.98620 8888 ft 295 kts 143°
2026-04-20 16:55 28.40028 -80.97160 9577 ft 299 kts 143°
2026-04-20 16:55 28.38390 -80.95675 10245 ft 305 kts 142°
2026-04-20 16:55 28.36681 -80.94124 10452 ft 326 kts 142°
2026-04-20 16:56 28.34850 -80.92460 10613 ft 347 kts 142°
2026-04-20 16:56 28.32917 -80.90701 10771 ft 365 kts 142°
2026-04-20 16:56 28.30901 -80.88868 11138 ft 375 kts 142°
2026-04-20 16:56 28.28871 -80.86975 11653 ft 381 kts 137°
2026-04-20 16:57 28.27289 -80.84554 12207 ft 386 kts 116°
2026-04-20 16:57 28.26254 -80.81729 12804 ft 390 kts 112°
2026-04-20 16:57 28.25271 -80.78841 13330 ft 395 kts 112°
2026-04-20 16:57 28.24257 -80.75916 13865 ft 400 kts 113°
2026-04-20 16:58 28.23211 -80.72975 14381 ft 404 kts 113°
2026-04-20 16:58 28.22056 -80.70063 14911 ft 406 kts 123°
2026-04-20 16:58 28.20217 -80.67664 15452 ft 404 kts 143°
2026-04-20 16:58 28.17835 -80.66029 16018 ft 400 kts 162°
2026-04-20 16:59 28.15194 -80.65051 16596 ft 400 kts 167°
2026-04-20 16:59 28.12545 -80.64175 17108 ft 404 kts 167°
2026-04-20 16:59 28.09832 -80.63287 17612 ft 408 kts 167°
2026-04-20 16:59 28.07098 -80.62376 18149 ft 411 kts 167°
2026-04-20 17:00 28.01589 -80.60490 19065 ft 417 kts 167°
2026-04-20 17:00 27.98810 -80.59527 19514 ft 419 kts 167°
2026-04-20 17:00 27.96019 -80.58560 19946 ft 421 kts 167°
2026-04-20 17:01 27.93225 -80.57501 20360 ft 428 kts 159°
2026-04-20 17:01 27.90709 -80.55626 20741 ft 442 kts 140°
2026-04-20 17:01 27.88666 -80.52999 21188 ft 447 kts 133°
2026-04-20 17:01 27.86716 -80.50245 21569 ft 451 kts 132°
2026-04-20 17:02 27.84767 -80.47441 21916 ft 456 kts 132°
2026-04-20 17:02 27.82803 -80.44616 22278 ft 459 kts 132°
2026-04-20 17:02 27.80814 -80.41776 22661 ft 462 kts 133°
2026-04-20 17:02 27.78807 -80.38931 23024 ft 465 kts 133°
2026-04-20 17:03 27.76775 -80.36073 23369 ft 468 kts 133°
2026-04-20 17:03 27.74724 -80.33200 23714 ft 472 kts 134°
2026-04-20 17:03 27.72657 -80.30314 24007 ft 474 kts 134°
2026-04-20 17:03 27.70575 -80.27411 24326 ft 476 kts 133°
2026-04-20 17:04 27.68487 -80.24502 24651 ft 478 kts 133°
2026-04-20 17:04 27.66393 -80.21586 24960 ft 479 kts 133°
2026-04-20 17:04 27.64293 -80.18663 25257 ft 481 kts 133°
2026-04-20 17:04 27.62175 -80.15717 25544 ft 483 kts 133°
2026-04-20 17:05 27.60082 -80.12807 25818 ft 486 kts 133°
2026-04-20 17:05 27.57950 -80.09845 26099 ft 488 kts 133°
2026-04-20 17:05 27.55809 -80.06872 26369 ft 490 kts 133°
2026-04-20 17:05 27.53655 -80.03884 26635 ft 492 kts 133°
2026-04-20 17:06 27.51488 -80.00878 26886 ft 494 kts 133°
2026-04-20 17:06 27.49314 -79.97866 27145 ft 496 kts 133°
2026-04-20 17:06 27.47132 -79.94846 27387 ft 498 kts 133°
2026-04-20 17:06 27.44940 -79.91813 27632 ft 501 kts 133°
2026-04-20 17:07 27.42733 -79.88762 27849 ft 503 kts 133°
2026-04-20 17:07 27.40520 -79.85704 28076 ft 505 kts 133°
2026-04-20 17:07 27.38295 -79.82631 28296 ft 507 kts 133°
2026-04-20 17:07 27.36058 -79.79544 28509 ft 510 kts 133°
2026-04-20 17:08 27.33811 -79.76447 28702 ft 512 kts 133°
2026-04-20 17:08 27.31553 -79.73335 28914 ft 514 kts 133°
2026-04-20 17:08 27.29290 -79.70219 29133 ft 516 kts 133°
2026-04-20 17:08 27.27018 -79.67092 29386 ft 517 kts 133°
2026-04-20 17:09 27.24743 -79.63964 29681 ft 516 kts 133°
2026-04-20 17:09 27.22474 -79.60845 30014 ft 516 kts 133°
2026-04-20 17:09 27.20972 -79.58782 30230 ft 515 kts 133°
2026-04-20 17:09 27.18704 -79.55669 30511 ft 515 kts 133°
2026-04-20 17:10 27.16437 -79.52560 30780 ft 514 kts 133°
2026-04-20 17:10 27.14170 -79.49454 31071 ft 514 kts 133°
2026-04-20 17:10 27.11910 -79.46358 31361 ft 513 kts 133°
2026-04-20 17:10 27.09651 -79.43267 31662 ft 512 kts 133°
2026-04-20 17:11 27.07393 -79.40180 31930 ft 512 kts 133°
2026-04-20 17:11 27.05135 -79.37094 32188 ft 512 kts 133°
2026-04-20 17:11 27.02874 -79.34007 32486 ft 511 kts 133°
2026-04-20 17:11 27.00621 -79.30934 32782 ft 510 kts 133°
2026-04-20 17:12 26.98364 -79.27855 33025 ft 511 kts 133°
2026-04-20 17:12 26.96106 -79.24779 33274 ft 511 kts 133°
2026-04-20 17:12 26.93847 -79.21703 33545 ft 511 kts 133°
2026-04-20 17:12 26.91593 -79.18635 33826 ft 510 kts 133°
2026-04-20 17:13 26.89336 -79.15566 34075 ft 510 kts 133°
2026-04-20 17:13 26.87080 -79.12501 34289 ft 510 kts 133°
2026-04-20 17:13 26.84850 -79.09472 34506 ft 511 kts 133°
2026-04-20 17:13 26.82586 -79.06400 34711 ft 512 kts 133°
2026-04-20 17:14 26.80317 -79.03324 34897 ft 512 kts 133°
2026-04-20 17:14 26.78050 -79.00252 35105 ft 512 kts 133°
2026-04-20 17:14 26.75779 -78.97176 35291 ft 513 kts 132°
2026-04-20 17:14 26.73509 -78.94104 35477 ft 513 kts 132°
2026-04-20 17:15 26.71233 -78.91026 35641 ft 514 kts 132°
2026-04-20 17:15 26.68952 -78.87943 35840 ft 514 kts 132°
2026-04-20 17:15 26.66670 -78.84861 36053 ft 514 kts 132°
2026-04-20 17:15 26.64387 -78.81779 36247 ft 514 kts 132°
2026-04-20 17:16 26.62111 -78.78708 36479 ft 513 kts 132°
2026-04-20 17:16 26.59837 -78.75642 36711 ft 512 kts 132°
2026-04-20 17:16 26.57568 -78.72585 36902 ft 512 kts 132°
2026-04-20 17:16 26.55364 -78.69446 37038 ft 514 kts 126°
2026-04-20 17:17 26.53524 -78.66019 37132 ft 516 kts 119°
2026-04-20 17:17 26.50201 -78.58891 37146 ft 518 kts 118°
2026-04-20 17:18 26.46916 -78.51746 37144 ft 517 kts 118°
2026-04-20 17:18 26.43579 -78.44638 37138 ft 517 kts 118°
2026-04-20 17:19 26.40211 -78.37558 37126 ft 516 kts 119°
2026-04-20 17:19 26.36836 -78.30488 37129 ft 516 kts 119°
2026-04-20 17:20 26.33465 -78.23430 37128 ft 516 kts 119°
2026-04-20 17:20 26.30094 -78.16376 37126 ft 515 kts 119°
2026-04-20 17:21 26.26723 -78.09334 37126 ft 515 kts 119°
2026-04-20 17:21 26.23346 -78.02292 37124 ft 515 kts 119°
2026-04-20 17:22 26.19987 -77.95297 37124 ft 515 kts 119°
2026-04-20 17:22 26.16602 -77.88259 37122 ft 516 kts 118°
2026-04-20 17:23 26.13211 -77.81221 37124 ft 516 kts 118°
2026-04-20 17:23 26.09813 -77.74178 37119 ft 517 kts 118°
2026-04-20 17:24 26.06411 -77.67139 37122 ft 517 kts 118°
2026-04-20 17:24 26.03001 -77.60093 37118 ft 517 kts 118°
2026-04-20 17:25 25.99584 -77.53042 37117 ft 518 kts 118°
2026-04-20 17:25 25.96108 -77.46028 37116 ft 518 kts 120°
2026-04-20 17:26 25.92499 -77.39099 37117 ft 518 kts 121°
2026-04-20 17:26 25.88876 -77.32178 37118 ft 519 kts 120°
2026-04-20 17:27 25.85289 -77.25286 37113 ft 519 kts 120°
2026-04-20 17:27 25.81687 -77.18347 37113 ft 519 kts 120°
2026-04-20 17:28 25.78085 -77.11417 37113 ft 518 kts 120°
2026-04-20 17:28 25.74477 -77.04488 37113 ft 518 kts 120°
2026-04-20 17:29 25.70868 -76.97572 37115 ft 518 kts 120°
2026-04-20 17:29 25.67258 -76.90663 37112 ft 518 kts 120°
2026-04-20 17:30 25.63647 -76.83762 37109 ft 518 kts 120°
2026-04-20 17:30 25.60032 -76.76862 37110 ft 517 kts 120°
2026-04-20 17:31 25.56415 -76.69970 37107 ft 517 kts 120°
2026-04-20 17:31 25.52799 -76.63089 37110 ft 517 kts 120°
2026-04-20 17:32 25.49181 -76.56222 37105 ft 517 kts 120°
2026-04-20 17:32 25.45556 -76.49352 37106 ft 517 kts 120°
2026-04-20 17:33 25.41929 -76.42486 37105 ft 517 kts 120°
2026-04-20 17:33 25.38327 -76.35674 37108 ft 517 kts 120°
2026-04-20 17:34 25.34696 -76.28818 37106 ft 517 kts 120°
2026-04-20 17:34 25.31059 -76.21962 37106 ft 517 kts 120°
2026-04-20 17:35 25.27420 -76.15111 37102 ft 517 kts 120°
2026-04-20 17:35 25.23775 -76.08259 37103 ft 517 kts 120°
2026-04-20 17:36 25.20127 -76.01411 37099 ft 517 kts 120°
2026-04-20 17:36 25.16476 -75.94569 37098 ft 517 kts 120°
2026-04-20 17:37 25.12822 -75.87731 37098 ft 517 kts 120°
2026-04-20 17:37 25.09165 -75.80895 37101 ft 517 kts 120°
2026-04-20 17:38 25.05502 -75.74061 37095 ft 517 kts 120°
2026-04-20 17:38 25.01841 -75.67239 37100 ft 517 kts 120°
2026-04-20 17:39 24.98178 -75.60421 37095 ft 517 kts 120°
2026-04-20 17:39 24.94511 -75.53607 37096 ft 516 kts 120°
2026-04-20 17:40 24.90870 -75.46851 37092 ft 516 kts 120°
2026-04-20 17:40 24.87200 -75.40049 37096 ft 516 kts 120°
2026-04-20 17:41 24.83527 -75.33257 37092 ft 516 kts 121°
2026-04-20 17:41 24.79846 -75.26476 37095 ft 516 kts 121°
2026-04-20 17:42 24.76165 -75.19701 37091 ft 516 kts 121°
2026-04-20 17:42 24.72478 -75.12922 37095 ft 516 kts 121°
2026-04-20 17:43 24.68791 -75.06149 37126 ft 516 kts 122°
2026-04-20 17:43 24.65077 -74.99338 37104 ft 522 kts 122°
2026-04-20 17:44 24.61321 -74.92463 37093 ft 526 kts 122°
2026-04-20 17:44 24.57539 -74.85544 37091 ft 529 kts 122°
2026-04-20 17:45 24.53746 -74.78616 37076 ft 527 kts 122°
2026-04-20 17:45 24.50004 -74.71776 37068 ft 519 kts 122°
2026-04-20 17:46 24.46291 -74.64985 37085 ft 518 kts 122°
2026-04-20 17:46 24.42577 -74.58215 37085 ft 518 kts 123°
2026-04-20 17:47 24.38142 -74.52114 37108 ft 514 kts 136°
2026-04-20 17:47 24.33225 -74.46421 37092 ft 515 kts 136°
2026-04-20 17:48 24.28298 -74.40709 37091 ft 516 kts 136°
2026-04-20 17:48 24.23401 -74.34942 37091 ft 518 kts 135°
2026-04-20 17:49 24.18504 -74.29147 37091 ft 519 kts 135°
2026-04-20 17:49 24.13592 -74.23341 37091 ft 520 kts 135°
2026-04-20 17:50 24.08669 -74.17536 37079 ft 521 kts 135°
2026-04-20 17:50 24.03734 -74.11726 37077 ft 521 kts 135°
2026-04-20 17:51 23.98806 -74.05929 37078 ft 520 kts 135°
2026-04-20 17:51 23.93876 -74.00137 37082 ft 520 kts 135°
2026-04-20 17:52 23.88958 -73.94366 37073 ft 518 kts 135°
2026-04-20 17:52 23.84053 -73.88597 37072 ft 517 kts 135°
2026-04-20 17:53 23.79165 -73.82840 37072 ft 516 kts 135°
2026-04-20 17:53 23.74285 -73.77100 37075 ft 515 kts 135°
2026-04-20 17:54 23.69444 -73.71417 37071 ft 514 kts 135°
2026-04-20 17:54 23.64577 -73.65708 37073 ft 513 kts 135°
2026-04-20 17:55 23.59718 -73.60015 37072 ft 513 kts 135°
2026-04-20 17:55 23.54845 -73.54331 37073 ft 512 kts 136°
2026-04-20 17:56 23.49954 -73.48699 37070 ft 512 kts 136°
2026-04-20 17:56 23.45055 -73.43072 37070 ft 512 kts 136°
2026-04-20 17:57 23.40163 -73.37447 37072 ft 512 kts 136°
2026-04-20 17:57 23.35266 -73.31819 37071 ft 512 kts 135°
2026-04-20 17:58 23.30369 -73.26195 37070 ft 512 kts 135°
2026-04-20 17:58 23.25465 -73.20571 37068 ft 512 kts 135°
2026-04-20 17:59 23.20560 -73.14953 37070 ft 512 kts 135°
2026-04-20 17:59 23.16482 -73.10286 37068 ft 512 kts 135°
2026-04-20 18:00 23.16239 -73.10008 37063 ft 512 kts 135°
2026-04-20 18:06 23.14935 -73.08516 37063 ft 512 kts 135°
2026-04-20 18:06 23.10024 -73.02905 37060 ft 512 kts 135°
2026-04-20 18:07 23.05115 -72.97300 37059 ft 512 kts 135°
2026-04-20 18:07 23.00210 -72.91706 37059 ft 511 kts 135°
2026-04-20 18:08 22.95466 -72.85956 37066 ft 512 kts 131°
2026-04-20 18:08 22.91024 -72.79930 37057 ft 511 kts 129°
2026-04-20 18:09 22.86622 -72.73874 37058 ft 511 kts 129°
2026-04-20 18:09 22.82193 -72.67859 37058 ft 510 kts 130°
2026-04-20 18:10 22.77749 -72.61878 37058 ft 509 kts 130°
2026-04-20 18:10 22.73303 -72.55914 37057 ft 508 kts 130°
2026-04-20 18:11 22.68895 -72.50004 37058 ft 508 kts 130°
2026-04-20 18:11 22.64458 -72.44060 37055 ft 507 kts 130°
2026-04-20 18:12 22.60025 -72.38125 37056 ft 506 kts 130°
2026-04-20 18:12 22.55596 -72.32203 37055 ft 506 kts 130°
2026-04-20 18:13 22.51167 -72.26288 37054 ft 506 kts 130°
2026-04-20 18:13 22.46739 -72.20381 37053 ft 506 kts 130°
2026-04-20 18:14 22.42310 -72.14481 37055 ft 505 kts 130°
2026-04-20 18:14 22.37877 -72.08579 37050 ft 505 kts 130°
2026-04-20 18:15 22.33448 -72.02692 37052 ft 505 kts 130°
2026-04-20 18:15 22.29016 -71.96806 37051 ft 505 kts 130°
2026-04-20 18:16 22.24582 -71.90923 37050 ft 505 kts 130°
2026-04-20 18:16 22.20150 -71.85051 37048 ft 505 kts 130°
2026-04-20 18:17 22.15713 -71.79178 37050 ft 504 kts 130°
2026-04-20 18:17 22.11279 -71.73316 37044 ft 504 kts 130°
2026-04-20 18:18 22.06848 -71.67463 37046 ft 504 kts 130°
2026-04-20 18:18 22.02440 -71.61648 37047 ft 504 kts 130°
2026-04-20 18:19 21.98006 -71.55805 37045 ft 503 kts 130°
2026-04-20 18:19 21.93572 -71.49968 37047 ft 503 kts 130°
2026-04-20 18:20 21.89132 -71.44129 37193 ft 504 kts 130°
2026-04-20 18:20 21.86912 -71.41212 37451 ft 503 kts 130°
2026-04-20 18:20 21.84700 -71.38308 37734 ft 500 kts 130°
2026-04-20 18:21 21.82499 -71.35418 38009 ft 498 kts 130°
2026-04-20 18:21 21.80307 -71.32542 38211 ft 497 kts 130°
2026-04-20 18:21 21.78108 -71.29660 38345 ft 498 kts 130°
2026-04-20 18:21 21.75909 -71.26778 38484 ft 499 kts 130°
2026-04-20 18:22 21.73703 -71.23889 38646 ft 499 kts 130°
2026-04-20 18:22 21.71505 -71.21011 38818 ft 498 kts 130°
2026-04-20 18:22 21.69307 -71.18135 38975 ft 497 kts 130°
2026-04-20 18:22 21.67116 -71.15270 39025 ft 497 kts 130°
2026-04-20 18:23 21.62702 -71.09500 39048 ft 500 kts 130°
2026-04-20 18:23 21.58193 -71.03824 39035 ft 499 kts 137°
2026-04-20 18:24 21.52718 -70.99327 39057 ft 495 kts 149°
2026-04-20 18:24 21.46913 -70.95353 39032 ft 495 kts 150°
2026-04-20 18:25 21.41116 -70.91370 39042 ft 495 kts 149°
2026-04-20 18:25 21.35340 -70.87343 39031 ft 495 kts 149°
2026-04-20 18:26 21.29583 -70.83307 39042 ft 494 kts 149°
2026-04-20 18:26 21.23869 -70.79301 39032 ft 494 kts 149°
2026-04-20 18:27 21.18076 -70.75248 39036 ft 493 kts 149°
2026-04-20 18:27 21.12332 -70.71234 39033 ft 493 kts 149°
2026-04-20 18:28 21.06623 -70.67249 39031 ft 492 kts 149°
2026-04-20 18:28 21.00853 -70.63225 39036 ft 492 kts 149°
2026-04-20 18:29 20.95125 -70.59234 39034 ft 491 kts 149°
2026-04-20 18:29 20.89393 -70.55244 39034 ft 491 kts 149°
2026-04-20 18:30 20.83707 -70.51289 39031 ft 491 kts 149°
2026-04-20 18:30 20.77981 -70.47310 39031 ft 491 kts 149°
2026-04-20 18:31 20.72258 -70.43338 39033 ft 491 kts 150°
2026-04-20 18:31 20.66531 -70.39365 39021 ft 491 kts 150°
2026-04-20 18:32 20.63639 -70.37362 38542 ft 499 kts 150°
2026-04-20 18:32 20.60722 -70.35343 37964 ft 498 kts 150°
2026-04-20 18:32 20.57818 -70.33330 37379 ft 497 kts 150°
2026-04-20 18:32 20.54921 -70.31324 36789 ft 496 kts 150°
2026-04-20 18:33 20.52030 -70.29323 36220 ft 495 kts 150°
2026-04-20 18:33 20.49135 -70.27321 35609 ft 496 kts 150°
2026-04-20 18:33 20.46236 -70.25318 34967 ft 497 kts 150°
2026-04-20 18:33 20.43327 -70.23308 34285 ft 500 kts 150°
2026-04-20 18:34 20.40399 -70.21287 33548 ft 502 kts 150°
2026-04-20 18:34 20.37465 -70.19262 32813 ft 504 kts 150°
2026-04-20 18:34 20.34519 -70.17229 32085 ft 505 kts 150°
2026-04-20 18:34 20.31575 -70.15198 31543 ft 502 kts 150°
2026-04-20 18:35 20.28651 -70.13180 31033 ft 499 kts 150°
2026-04-20 18:35 20.25744 -70.11177 30517 ft 496 kts 150°
2026-04-20 18:35 20.22853 -70.09185 29993 ft 493 kts 150°
2026-04-20 18:35 20.19986 -70.07212 29422 ft 490 kts 149°
2026-04-20 18:36 20.17153 -70.05221 28886 ft 486 kts 146°
2026-04-20 18:36 20.14517 -70.02998 28513 ft 479 kts 142°
2026-04-20 18:36 20.11979 -70.00743 28117 ft 473 kts 141°
2026-04-20 18:36 20.09478 -69.98488 27711 ft 468 kts 141°
2026-04-20 18:37 20.07017 -69.96269 27328 ft 461 kts 141°
2026-04-20 18:37 20.04578 -69.94078 26962 ft 458 kts 141°
2026-04-20 18:37 20.02135 -69.91898 26597 ft 459 kts 141°
2026-04-20 18:37 19.99678 -69.89714 26232 ft 460 kts 141°
2026-04-20 18:38 19.97229 -69.87545 25855 ft 456 kts 141°
2026-04-20 18:38 19.94800 -69.85397 25482 ft 452 kts 141°
2026-04-20 18:38 19.92395 -69.83271 25116 ft 448 kts 141°
2026-04-20 18:38 19.90007 -69.81163 24752 ft 444 kts 141°
2026-04-20 18:39 19.87641 -69.79074 24380 ft 441 kts 141°
2026-04-20 18:39 19.85286 -69.76996 24025 ft 438 kts 141°
2026-04-20 18:39 19.82979 -69.74961 23667 ft 436 kts 141°
2026-04-20 18:39 19.80655 -69.72911 23268 ft 432 kts 141°
2026-04-20 18:40 19.78355 -69.70883 22893 ft 428 kts 141°
2026-04-20 18:40 19.76044 -69.68846 22528 ft 424 kts 141°
2026-04-20 18:40 19.73784 -69.66855 22188 ft 421 kts 141°
2026-04-20 18:40 19.71539 -69.64878 21840 ft 417 kts 141°
2026-04-20 18:41 19.69341 -69.62943 21506 ft 415 kts 141°
2026-04-20 18:41 19.67129 -69.60996 21170 ft 412 kts 141°
2026-04-20 18:41 19.64929 -69.59060 20842 ft 410 kts 141°
2026-04-20 18:41 19.62739 -69.57135 20510 ft 408 kts 141°
2026-04-20 18:42 19.60561 -69.55220 20180 ft 406 kts 141°
2026-04-20 18:42 19.58388 -69.53311 19858 ft 405 kts 141°
2026-04-20 18:42 19.56222 -69.51408 19525 ft 404 kts 141°
2026-04-20 18:42 19.54059 -69.49508 19186 ft 403 kts 141°
2026-04-20 18:43 19.51905 -69.47618 18856 ft 402 kts 141°
2026-04-20 18:43 19.49757 -69.45733 18532 ft 400 kts 140°
2026-04-20 18:43 19.47614 -69.43852 18159 ft 399 kts 140°
2026-04-20 18:43 19.45479 -69.41980 17826 ft 397 kts 140°
2026-04-20 18:44 19.43361 -69.40124 17485 ft 394 kts 140°
2026-04-20 18:44 19.41249 -69.38274 17165 ft 393 kts 140°
2026-04-20 18:44 19.39152 -69.36437 16840 ft 389 kts 140°
2026-04-20 18:44 19.37075 -69.34618 16525 ft 386 kts 140°
2026-04-20 18:45 19.35013 -69.32813 16213 ft 383 kts 140°
2026-04-20 18:45 19.32969 -69.31024 15899 ft 380 kts 140°
2026-04-20 18:45 19.30945 -69.29253 15598 ft 374 kts 140°
2026-04-20 18:45 19.28957 -69.27515 15299 ft 368 kts 140°
2026-04-20 18:46 19.26994 -69.25799 15007 ft 364 kts 140°
2026-04-20 18:46 19.25055 -69.24104 14708 ft 359 kts 140°
2026-04-20 18:46 19.23784 -69.22993 14510 ft 357 kts 140°
2026-04-20 18:46 19.21884 -69.21333 14220 ft 352 kts 140°
2026-04-20 18:47 19.20008 -69.19695 13935 ft 348 kts 140°
2026-04-20 18:47 19.18151 -69.18074 13633 ft 344 kts 140°
2026-04-20 18:47 19.16315 -69.16472 13326 ft 341 kts 140°
2026-04-20 18:47 19.14497 -69.14887 13042 ft 338 kts 140°
2026-04-20 18:48 19.12687 -69.13307 12763 ft 337 kts 140°
2026-04-20 18:48 19.10881 -69.11732 12490 ft 337 kts 140°
2026-04-20 18:48 19.09075 -69.10158 12209 ft 336 kts 140°
2026-04-20 18:48 19.07279 -69.08592 11934 ft 334 kts 140°
2026-04-20 18:49 19.05485 -69.07030 11662 ft 333 kts 140°
2026-04-20 18:49 19.03694 -69.05470 11391 ft 332 kts 140°
2026-04-20 18:49 19.01912 -69.03917 11117 ft 331 kts 140°
2026-04-20 18:49 19.00136 -69.02371 10850 ft 330 kts 140°
2026-04-20 18:50 18.98362 -69.00828 10587 ft 330 kts 140°
2026-04-20 18:50 18.96606 -68.99301 10304 ft 322 kts 140°
2026-04-20 18:50 18.94912 -68.97828 10040 ft 309 kts 140°
2026-04-20 18:50 18.93287 -68.96416 9823 ft 295 kts 139°
2026-04-20 18:51 18.91732 -68.95063 9521 ft 286 kts 139°
2026-04-20 18:51 18.90219 -68.93747 9285 ft 277 kts 140°
2026-04-20 18:51 18.88749 -68.92469 9051 ft 271 kts 140°
2026-04-20 18:51 18.87295 -68.91205 8856 ft 272 kts 140°
2026-04-20 18:52 18.85827 -68.89930 8634 ft 275 kts 140°
2026-04-20 18:52 18.84339 -68.88638 8417 ft 278 kts 140°
2026-04-20 18:52 18.82850 -68.87335 8172 ft 277 kts 137°
2026-04-20 18:52 18.81568 -68.85874 7946 ft 273 kts 128°
2026-04-20 18:53 18.80389 -68.84281 7740 ft 271 kts 127°
2026-04-20 18:53 18.79263 -68.82722 7511 ft 269 kts 127°
2026-04-20 18:53 18.78131 -68.81163 7286 ft 267 kts 127°
2026-04-20 18:53 18.77001 -68.79621 7094 ft 264 kts 128°
2026-04-20 18:54 18.75876 -68.78102 6857 ft 259 kts 128°
2026-04-20 18:54 18.74781 -68.76635 6638 ft 251 kts 128°
2026-04-20 18:54 18.73710 -68.75206 6440 ft 246 kts 128°
2026-04-20 18:54 18.72656 -68.73798 6238 ft 243 kts 128°
2026-04-20 18:55 18.71616 -68.72411 6025 ft 240 kts 128°
2026-04-20 18:55 18.70584 -68.71040 5843 ft 236 kts 128°
2026-04-20 18:55 18.69568 -68.69690 5635 ft 233 kts 128°
2026-04-20 18:55 18.68565 -68.68361 5482 ft 231 kts 128°
2026-04-20 18:56 18.67576 -68.67035 5261 ft 229 kts 128°
2026-04-20 18:56 18.66595 -68.65724 5069 ft 227 kts 129°
2026-04-20 18:56 18.65632 -68.64447 4892 ft 219 kts 129°
2026-04-20 18:56 18.64701 -68.63209 4733 ft 213 kts 128°
2026-04-20 18:57 18.63788 -68.61991 4538 ft 210 kts 128°
2026-04-20 18:57 18.62897 -68.60803 4343 ft 203 kts 128°
2026-04-20 18:57 18.62024 -68.59639 4229 ft 206 kts 128°
2026-04-20 18:57 18.61118 -68.58433 4043 ft 211 kts 129°
2026-04-20 18:58 18.60009 -68.57482 3884 ft 205 kts 154°
2026-04-20 18:58 18.58674 -68.56998 3689 ft 199 kts 162°
2026-04-20 18:58 18.57370 -68.56620 3547 ft 191 kts 162°
2026-04-20 18:58 18.56088 -68.56251 3387 ft 190 kts 163°
2026-04-20 18:59 18.54823 -68.55884 3211 ft 187 kts 162°
2026-04-20 18:59 18.53644 -68.55360 3118 ft 186 kts 138°
2026-04-20 18:59 18.52956 -68.54192 2853 ft 193 kts 101°
2026-04-20 18:59 18.52985 -68.52782 2677 ft 197 kts 79°
2026-04-20 19:00 18.53412 -68.51410 2516 ft 201 kts 74°
2026-04-20 19:00 18.53821 -68.49965 2248 ft 206 kts 76°
2026-04-20 19:00 18.54221 -68.48533 2031 ft 201 kts 76°
2026-04-20 19:00 18.54600 -68.47127 1749 ft 196 kts 76°
2026-04-20 19:01 18.55007 -68.45753 1440 ft 193 kts 77°
2026-04-20 19:01 18.55368 -68.44457 1215 ft 178 kts 76°
2026-04-20 19:01 18.55712 -68.43243 1026 ft 166 kts 75°
2026-04-20 19:01 18.56018 -68.42112 861 ft 156 kts 76°
2026-04-20 19:02 18.56305 -68.41031 684 ft 156 kts 77°
2026-04-20 19:02 18.56587 -68.39942 474 ft 154 kts 78°
2026-04-20 19:02 18.56882 -68.38862 251 ft 153 kts 76°
2026-04-20 19:02 18.57170 -68.37789 56 ft 147 kts 76°
2026-04-20 19:03 18.57400 -68.36976 47 ft 57 kts 74°
2026-04-20 19:03 18.57499 -68.36609 45 ft 50 kts 74°
2026-04-20 19:03 18.57590 -68.36273 46 ft 45 kts 74°
2026-04-20 19:03 18.57584 -68.35990 46 ft 38 kts 105°
2026-04-20 19:04 18.57444 -68.35839 46 ft 29 kts 170°
2026-04-20 19:04 18.57245 -68.35828 45 ft 28 kts 176°
2026-04-20 19:04 18.57059 -68.35816 47 ft 26 kts 176°
2026-04-20 19:04 18.56884 -68.35806 47 ft 24 kts 176°
2026-04-20 19:05 18.56721 -68.35793 46 ft 23 kts 173°
2026-04-20 19:05 18.56566 -68.35778 46 ft 22 kts 183°
2026-04-20 19:05 18.56509 -68.35909 48 ft 22 kts 265°
2026-04-20 19:05 18.56495 -68.36064 59 ft 21 kts 264°
2026-04-20 19:06 18.56480 -68.36215 49 ft 20 kts 263°
2026-04-20 19:06 18.56471 -68.36361 49 ft 20 kts 266°
2026-04-20 19:06 18.56461 -68.36492 48 ft 16 kts 264°
2026-04-20 19:06 18.56472 -68.36604 50 ft 15 kts 300°
2026-04-20 19:07 18.56525 -68.36698 51 ft 15 kts 286°
2026-04-20 19:07 18.56481 -68.36753 51 ft 10 kts 180°
2026-04-20 19:07 18.56411 -68.36746 51 ft 8 kts 174°
2026-04-20 19:07 18.56373 -68.36766 51 ft 7 kts 259°
2026-04-20 19:08 18.56370 -68.36790 51 ft 1 kts 264°
2026-04-20 19:08 18.56369 -68.36803 51 ft 0 kts 264°